Weather History for KHOT - March, 2013

Change the Weather History Date:

Monday, March 4, 2013

  Actual Average Record
Temperature  
Mean Temperature 58 °F -  
Max Temperature 72 °F 62 °F - (-1)
Min Temperature 45 °F 40 °F - (-1)
Degree Days  
Heating Degree Days 6    
Growing Degree Days 8 (Base 50)    
Moisture  
Dew Point 43 °F    
Average Humidity 61    
Maximum Humidity 77    
Minimum Humidity 45    
Precipitation  
Precipitation 0.00 in - - ()
Sea Level Pressure  
Sea Level Pressure 29.76 in    
Wind  
Wind Speed 7 mph (SSE)    
Max Wind Speed 13 mph    
Max Gust Speed 23 mph    
Visibility 10 miles    
Events      
Averages and records for this station are not official NWS values.
T = Trace of Precipitation, MM = Missing Value Source: NWS Daily Summary

Daily Weather History Graph

Daily Weather History Graph

Search for Another Location

Airport or City:

Trip Planner

Search our weather history database for the weather conditions in past years. The results will help you decide how hot, cold, wet, or windy it might be!

Date:

Astronomy

Mar. 04, 2013 Rise Set
Actual Time 6:37 AM CST 6:11 PM CST
Civil Twilight 6:12 AM CST 6:36 PM CST
Nautical Twilight 5:42 AM CST 7:05 PM CST
Astronomical Twilight 5:13 AM CST 7:34 PM CST
Moon 12:37 AM CST (3/4) 11:04 AM CST (3/4)
Length of Visible Light 12h 24m
Length of Day
11h 34m
Waning Gibbous, 52% of the Moon is Illuminated
Mar 4
Waning Gibbous
Mar 4
Last Quarter
Mar 11
New
Mar 19
First Quarter
Mar 27
Full

Hourly Weather History & Observations

Time (CST) Temp. Windchill Dew Point Humidity Pressure Visibility Wind Dir Wind Speed Gust Speed Precip Events Conditions
12:53 AM 46.0 °F 43.1 °F 28.0 °F 50% 29.92 in 10.0 mi South 5.8 mph - N/A   Clear
1:53 AM 46.0 °F 41.9 °F 28.9 °F 51% 29.91 in 10.0 mi SE 8.1 mph - N/A   Clear
2:53 AM 46.0 °F 43.1 °F 30.0 °F 54% 29.87 in 10.0 mi SE 5.8 mph - N/A   Clear
3:53 AM 45.0 °F 42.6 °F 30.0 °F 56% 29.86 in 10.0 mi SE 4.6 mph - N/A   Clear
4:53 AM 45.0 °F 41.8 °F 30.9 °F 58% 29.84 in 10.0 mi SE 5.8 mph - N/A   Clear
5:53 AM 45.0 °F 41.8 °F 33.1 °F 63% 29.84 in 10.0 mi SSE 5.8 mph - N/A   Clear
6:53 AM 46.0 °F 43.1 °F 36.0 °F 68% 29.84 in 10.0 mi Variable 5.8 mph - N/A   Mostly Cloudy
7:53 AM 46.9 °F - 37.9 °F 71% 29.83 in 10.0 mi SE 5.8 mph - N/A   Overcast
8:53 AM 48.0 °F - 39.9 °F 74% 29.81 in 10.0 mi ESE 5.8 mph - N/A   Overcast
9:53 AM 48.9 °F - 42.1 °F 77% 29.80 in 10.0 mi SE 4.6 mph - N/A   Overcast
10:53 AM 52.0 °F - 44.1 °F 74% 29.78 in 10.0 mi ESE 3.5 mph - N/A   Overcast
11:53 AM 54.0 °F - 46.0 °F 75% 29.74 in 10.0 mi ESE 6.9 mph - N/A   Overcast
12:53 PM 55.9 °F - 46.0 °F 69% 29.73 in 10.0 mi NE 9.2 mph - N/A   Overcast
1:38 PM 60.8 °F - 48.2 °F 63% 29.70 in 10.0 mi East 9.2 mph - N/A   Mostly Cloudy
1:53 PM 61.0 °F - 48.0 °F 62% 29.68 in 10.0 mi ESE 10.4 mph - N/A   Mostly Cloudy
2:53 PM 66.9 °F - 50.0 °F 54% 29.66 in 10.0 mi SSE 10.4 mph 16.1 mph N/A   Mostly Cloudy
3:53 PM 71.1 °F - 48.9 °F 45% 29.65 in 10.0 mi SW 12.7 mph 23.0 mph N/A   Overcast
4:53 PM 72.0 °F - 50.0 °F 46% 29.63 in 10.0 mi SSW 12.7 mph 21.9 mph N/A   Mostly Cloudy
5:53 PM 71.1 °F - 50.0 °F 47% 29.65 in 10.0 mi SSW 8.1 mph 17.3 mph N/A   Clear
6:53 PM 66.9 °F - 51.1 °F 57% 29.67 in 10.0 mi SSW 5.8 mph - N/A   Clear
7:53 PM 64.9 °F - 51.1 °F 61% 29.68 in 10.0 mi South 4.6 mph - N/A   Clear
8:53 PM 66.0 °F - 51.1 °F 59% 29.69 in 10.0 mi SW 5.8 mph - N/A   Clear
9:53 PM 64.9 °F - 51.1 °F 61% 29.70 in 10.0 mi SSW 8.1 mph - N/A   Clear
10:53 PM 64.0 °F - 53.1 °F 67% 29.72 in 10.0 mi SW 6.9 mph - N/A   Clear
11:53 PM 63.0 °F - 54.0 °F 72% 29.73 in 10.0 mi SSW 5.8 mph - N/A   Clear